Regional Weather Roundup
Issued by NWS

Home | Current Version | Previous Version | Graphics & Text | Print | Product List | Glossary On
Versions: 1 2 3 4 5 6 7 8 9 10 11 12 13 14 15 16 17 18 19 20 21 22 23 24 25 26 27 28 29 30 31 32 33 34 35 36 37 38 39 40 41 42 43 44 45 46 47 48 49 50
000
ASUS45 KCYS 210810
RWRWY

WYOMING REGIONAL WEATHER ROUNDUP
NATIONAL WEATHER SERVICE CHEYENNE WY
200 AM MDT SAT APR 21 2018

NOTE:  "FAIR" INDICATES FEW OR NO CLOUDS BELOW 12,000 FEET
WITH NO SIGNIFICANT WEATHER AND/OR OBSTRUCTIONS TO VISIBILITY.

WYZ001-210900-
YELLOWSTONE NATIONAL PARK

CITY           SKY/WX    TMP DP  RH WIND       PRES   REMARKS
LK YELLOWSTONE   N/A     25  20  81 CALM      30.22R
W YELLOWSTONE  NOT AVBL

$$
WYZ002>013-054>058-071-098>099-210900-
NORTHERN WYOMING

CITY           SKY/WX    TMP DP  RH WIND       PRES   REMARKS
JACKSON        FAIR      37  24  59 E7        30.16R WCI  32
CODY           FAIR      41  32  70 SW5       30.14R
GREYBULL       FAIR      43  36  76 S6        30.08R
WORLAND        FAIR      37  33  85 S7        30.08S WCI  32
SHERIDAN       FAIR      36  33  89 S5        30.11S WCI  32
BUFFALO        FAIR      36  33  89 SE8       30.14S WCI  30
GILLETTE       CLOUDY    38  34  85 S15       30.16S WCI  29
HULETT         FAIR      37  32  81 S13G20    30.17S WCI  29
NEWCASTLE      DRIZZLE   36  36 100 SE12G20   30.22S WCI  27

$$
WYZ014>020-022>026-101>103-210900-
CENTRAL WYOMING

CITY           SKY/WX    TMP DP  RH WIND       PRES   REMARKS
BIG PINEY      FAIR      28  22  78 CALM      30.17R
PINEDALE       FAIR      30  25  80 CALM      30.17R
DUBOIS         FAIR      30  23  74 NW5       30.18R WCI  25
LANDER         FAIR      36  30  79 W3        30.13S
RIVERTON       FAIR      36  31  82 E5        30.15S WCI  32
CASPER         CLOUDY    36  35  96 NE6       30.16R WCI  31
DOUGLAS        CLOUDY    36  36 100 SE14      30.17S WCI  27

$$
WYZ021-027>030-104>119-210900-
SOUTHERN WYOMING

CITY           SKY/WX    TMP DP  RH WIND       PRES   REMARKS
EVANSTON       FAIR      38  24  57 W5        30.17R WCI  34
KEMMERER       FAIR      32  30  93 NW6       30.17R WCI  26
FORT BRIDGER   FAIR      38  37  92 CALM      30.20R
ROCK SPRINGS   CLOUDY    37  30  75 N6        30.17R WCI  32
DIXON          CLOUDY    37  30  75 NE28      30.09F WCI  25
RAWLINS          N/A    N/A N/A N/A MISG      30.14R
SARATOGA       CLOUDY    34  34 100 N9        30.11R WCI  26
LARAMIE        LGT SNOW  28  28 100 SW3       30.11S FOG
CHEYENNE       LGT SNOW  31  31 100 SE10      30.14S FOG     WCI  22
TORRINGTON     CLOUDY    35  35 100 E14       30.20R WCI  26
PINE BLUFFS    CLOUDY    32  32 100 MISG      30.17S

$$



USA.gov is the U.S. government's official web portal to all federal, state and local government web resources and services.